SL-8 DEB

Satellite information

Favourite Embed

Satellite Type and Status

DEBRISIN ORBIT

Key statistics

Satellite SL-8 DEB at a glance.

Uptime

12723

Days in orbit

Revolutions

≈ 12.1

Per day

Orbit

LEO

Low Earth Orbit

Inclination

74.1

Latest

Satellite identification and parameters

Extended collection of information and parameters for SL-8 DEB.

Object identification

Identified? True

Debris? True

Object name: SL-8 DEB

International designator: 1991-009BL

Object number (NORAD): 21253

Object ID (CCSDS): 21253

Country: COMMONWEALTH OF INDEPENDENT STATES (CIS)

Current information (Y/N): Y

RCS size: MEDIUM

Orbital parameters

Period: 118.557 minutes

Inclination: 74.1149 deg

SMA: 7994.248 km

Apoapsis: 1735.085 km

Periapsis: 1497.14 km

RAAN: 298.0813 deg

Eccentricy: 0.01488228

Argument of periapsis: 291.0699 deg

Mean anomaly: 188.4745 deg

Mean motion: 12.14608662 rev/day

Mean motion (dot): -0.00000158 rev/day2

B* drag term: -0.001433615 1/REarth

Two-line elements (TLE)

Creation date: Dec. 12, 2025, 10:14 a.m.

Reference frame: TEME

Reference center: EARTH

Epoch: Dec. 12, 2025, 7:39 a.m. UTC

TLE line 0: 0 SL-8 DEB

TLE line 1: 1 21253U 91009BL 25346.31900650 -.00000158 00000-0 -14336-2 0 9991

TLE line 2: 2 21253 74.1149 298.0813 0148823 291.0699 188.4745 12.14608662541625

Live tracking on map

Real-time ground track for satellite SL-8 DEB.

In-orbit conjunctions

A list of the most updated potential collisions computed for object SL-8 DEB.

Target Orbit TCA Probability of collision Miss distance Type
MAGION 3 HEO 2025-02-01 08:04:02 0.0001054777 451.0 (m) PAYLOAD

Associated space launch

Military communications satellites

SL-8 DEB was lifted into orbit during the mission ‘Kosmos-3M | Strela-1M 353-360’, on board a Kosmos-3M space rocket.

The launch took place on Feb. 12, 1991, 2:44 a.m. from 133/3 (133L).

For more information about the launch, click the button.

Launch to space Kosmos-3M | Strela-1M 353-360
Kosmos-3M | Strela-1M 353-360

Agency: N/A

Status: Launch Successful

Launch date: Feb. 12, 1991, 2:44 a.m. UTC

Rocket: Kosmos-3M

Launch pad: 133/3 (133L)

Location: Plesetsk Cosmodrome, Russian Federation

...

Latest news about this satellite

There are no fresh news available about this satellite. Check back as we update our databases every day.


Newsletter sign-up

Weekly statistics, charts and insights to help you stay on top of the space industry.